Location: Burla
(50.9568°N, 10.4983°E)
Time: 18:23:32
(UTC+00:00)

CZ-4 R/B - Pass Details

Date: 18 January 2026
Orbit: 676 x 743 km, 98.7° (Epoch: 17 February)

Event Time Altitude Azimuth Distance (km) Brightness Sun altitude
Rises 04:50:34 0° 14° (NNE) 3,103 7.3 -21.7°
Reaches altitude 10° 04:52:48 10° 15° (NNE) 2,190 6.4 -21.3°
Maximum altitude 04:57:37 87° 288° (WNW) 726 3.7 -20.6°
Drops below altitude 10° 05:02:30 10° 199° (SSW) 2,216 6.3 -19.8°
Sets 05:04:47 0° 199° (SSW) 3,142 7.1 -19.5°
